This is the latest recevied weather packets stored in our database for station/object KB4MLW-13. If no packets are shown the sender has not sent any weather packets the latest 10 day(s).
| Time | Temp. | Humidity | Pressure | Rain* | Wind** | Luminosity | Snow |
|---|---|---|---|---|---|---|---|
| 1788302248 | 35° C | 61% | 1000.3 hPa | 0 mm | - | - | - |
| 1788302188 | 35° C | 62% | 1000.5 hPa | 0 mm | - | - | - |
| 1788302099 | 35.56° C | 59% | 1000.2 hPa | 0 mm | - | - | - |
| 1788302038 | 35.56° C | 57% | 1000.3 hPa | 0 mm | - | - | - |
| 1788301978 | 35.56° C | 57% | 1000.3 hPa | 0 mm | - | - | - |
| 1788301888 | 35.56° C | 57% | 1000.3 hPa | 0 mm | - | - | - |
| 1788301799 | 35.56° C | 56% | 1000.4 hPa | 0 mm | - | - | - |
| 1788301708 | 35.56° C | 55% | 1000.1 hPa | 0 mm | - | - | - |
| 1788301648 | 35.56° C | 54% | 1000.2 hPa | 0 mm | - | - | - |
| 1788301558 | 35.56° C | 55% | 1000.3 hPa | 0 mm | - | - | - |
| 1788301469 | 35° C | 56% | 1000.2 hPa | 0 mm | - | - | - |
| 1788301408 | 35° C | 55% | 1000.2 hPa | 0 mm | - | - | - |
| 1788301348 | 35° C | 57% | 1000.1 hPa | 0 mm | - | - | - |
| 1788301288 | 35° C | 59% | 1000.2 hPa | 0 mm | - | - | - |
| 1788301228 | 34.44° C | 62% | 1000.2 hPa | 0 mm | - | - | - |
| 1788301138 | 34.44° C | 63% | 1000.3 hPa | 0 mm | - | - | - |
| 1788301049 | 33.89° C | 63% | 1000 hPa | 0 mm | - | - | - |
| 1788300988 | 33.89° C | 63% | 1000.2 hPa | 0 mm | - | - | - |
| 1788300928 | 33.89° C | 65% | 1000.3 hPa | 0 mm | - | - | - |
| 1788300868 | 33.89° C | 63% | 1000.3 hPa | 0 mm | - | - | - |
| 1788300808 | 33.89° C | 66% | 1000.4 hPa | 0 mm | - | - | - |
| 1788300748 | 33.89° C | 64% | 1000.2 hPa | 0 mm | - | - | - |
| 1788300658 | 33.89° C | 65% | 1000.4 hPa | 0 mm | - | - | - |
| 1788300598 | 33.33° C | 64% | 1000.1 hPa | 0 mm | - | - | - |
| 1788300510 | 33.33° C | 63% | 1000.3 hPa | 0 mm | - | - | - |
* Rain latest hour (hover to see other rain measurements)
** Current wind speed in m/s (hover to see current wind gust speed)